Printer-friendly version

IAU Minor Planet Center

Minor Planet Center

MPEC 2006-L29 : 2006 LH

The following Minor Planet Electronic Circular may be linked-to from your own Web pages, but must not otherwise be redistributed electronically.


Read MPEC 2006-L28 Read MPEC 2006-L30


M.P.E.C. 2006-L29                                Issued 2006 June 5, 16:42 UT

     The Minor Planet Electronic Circulars contain information on unusual
         minor planets and routine data on comets.  They are published
   on behalf of Commission 20 of the International Astronomical Union by the
          Minor Planet Center, Smithsonian Astrophysical Observatory,
                          Cambridge, MA 02138, U.S.A.

                  Supported in part by the Brinson Foundation
                  Supported in part by the TABASGO Foundation
             Prepared using the Tamkin Foundation Computer Network

                              MPC@CFA.HARVARD.EDU
          URL http://cfa-www.harvard.edu/iau/mpc.html  ISSN 1523-6714

                                    2006 LH

Observations:
     K06L00H* C2006 06 01.33670 17 44 39.58 +16 18 23.1          20.6 V r3012G96
     K06L00H  C2006 06 01.34308 17 44 39.44 +16 18 50.4          21.7 V r3012G96
     K06L00H  C2006 06 01.34946 17 44 39.19 +16 19 17.7          21.8 V r3012G96
     K06L00H  C2006 06 01.35591 17 44 38.97 +16 19 45.0          21.2 V r3012G96
     K06L00H  C2006 06 01.39288 17 44 37.57 +16 22 22.0          21.5 V r3012G96
     K06L00H  C2006 06 01.40348 17 44 37.21 +16 23 06.8          21.2 V r3012G96
     K06L00H  C2006 06 01.41398 17 44 36.81 +16 23 51.6          20.8 V r3012G96
     K06L00H  C2006 06 01.42457 17 44 36.49 +16 24 35.4          20.9 V r3012G96
     K06L00H HC2006 06 02.41477 17 44 32.69 +17 39 16.1                 EL029291
     K06L00H HC2006 06 02.43132 17 44 32.16 +17 40 36.5                 EL029291
     K06L00H HC2006 06 02.44704 17 44 31.52 +17 41 48.8          21   R EL029291
     K06L00H  C2006 06 04.35391 17 44 19.42 +20 33 40.2          21.0 V EL029G96
     K06L00H  C2006 06 04.35484 17 44 19.39 +20 33 45.9          20.7 V EL029G96
     K06L00H  C2006 06 04.35572 17 44 19.35 +20 33 51.1          20.8 V EL029G96
     K06L00H  C2006 06 04.35660 17 44 19.28 +20 33 56.2          21.0 V EL029G96
     K06L00H  C2006 06 05.42605 17 44 02.31 +22 30 54.1                 EL029G96
     K06L00H  C2006 06 05.42693 17 44 02.27 +22 31 00.0                 EL029G96
     K06L00H  C2006 06 05.42782 17 44 02.25 +22 31 06.6          21.3 V EL029G96
     K06L00H  C2006 06 05.42870 17 44 02.17 +22 31 13.2          21.0 V EL029G96

Observer details:
291 LPL/Spacewatch II.  Observer J. V. Scotti.  1.8-m f/2.7 reflector + CCD.
G96 Mt. Lemmon Survey.  Observers R. Hill, A. R. Gibbs.  Measurers
    E. C. Beshore, E. J. Christensen, G. J. Garradd, A. R. Gibbs, A. D. Grauer,
    R. E. Hill, R. A. Kowalski, S. M. Larson, R. H. McNaught.  1.5-m reflector
    + CCD.

Orbital elements:
2006 LH                                                  Earth MOID = 0.0086 AU
Epoch 2006 Mar. 6.0 TT = JDT 2453800.5                  MPC
M 211.87185              (2000.0)            P               Q
n   0.87187557     Peri.  264.60640     +0.99075851     +0.00000017
a   1.0851748      Node    95.34360     +0.05235545     +0.92250045
e   0.3165010      Incl.    7.82973     -0.12512588     +0.38599600
P   1.13           H   24.7           G   0.15           U   9
Residuals in seconds of arc
060601 G96  0.9-  0.2-    060601 G96  0.6+  0.3-    060604 G96  0.0   0.1-
060601 G96  0.5+  0.0     060602 291  1.1-  1.0-    060605 G96  0.2-  0.2-
060601 G96  0.3+  0.1+    060602 291  0.7+  1.3+    060605 G96  0.1-  0.5-
060601 G96  0.5+  0.0     060602 291  0.0   0.5-    060605 G96  0.4+  0.0
060601 G96  0.0   0.2+    060604 G96  0.1-  0.3+    060605 G96  0.1-  0.4+
060601 G96  0.3+  0.2+    060604 G96  0.2+  0.3+
060601 G96  0.1-  0.6+    060604 G96  0.3+  0.2+

Ephemeris:
2006 LH                  a,e,i = 1.09, 0.32, 8                   q = 0.7417
Date    TT    R. A. (2000) Decl.     Delta      r     Elong.  Phase     V
2006 06 04    17 44.39   +19 58.9    0.0787   1.072   135.4    41.7    21.0
2006 06 05    17 44.20   +21 42.5    0.0731   1.067   133.9    43.2    20.8
2006 06 06    17 43.95   +23 41.9    0.0675   1.061   132.2    45.1    20.7
2006 06 07    17 43.62   +26 00.9    0.0621   1.056   130.1    47.3    20.6
2006 06 08    17 43.19   +28 44.8    0.0568   1.051   127.6    50.0    20.4
2006 06 09    17 42.63   +32 00.5    0.0517   1.045   124.5    53.2    20.3
2006 06 10    17 41.87   +35 57.1    0.0467   1.040   120.6    57.1    20.2
2006 06 11    17 40.82   +40 46.8    0.0420   1.034   115.9    62.0    20.1
2006 06 12    17 39.27   +46 44.7    0.0377   1.029   110.0    68.0    20.0
2006 06 13    17 36.77   +54 07.7    0.0339   1.023   102.6    75.5    20.0
2006 06 14    17 32.12   +63 10.3    0.0308   1.018    93.6    84.7    20.1
2006 06 15    17 20.42   +73 53.6    0.0286   1.013    82.8    95.6    20.4
2006 06 16    16 01.25   +85 37.6    0.0275   1.007    70.7   107.8    21.0
2006 06 17    06 38.97   +81 13.1    0.0277   1.002    58.2   120.5    21.8
2006 06 18    06 08.87   +69 35.4    0.0292   0.996    46.3   132.5    23.0
2006 06 19    06 01.03   +59 21.4    0.0318   0.991    36.0   142.9    24.4

     The June 1 observations of 2006 LH were published on MPS 173012 and
are republished here retaining their original reference.

Gareth V. Williams           (C) Copyright 2006 MPC           M.P.E.C. 2006-L29

Read MPEC 2006-L28 Read MPEC 2006-L30


Our Web policy. Index to the CBAT/MPC/ICQ pages.


Valid HTML 4.01!